STARLINK-34681, 66438

Orbit data source: Space-Track

STARLINK-34681, 66438 is a payload satellite owned by SpaceX/Seattle (US) in LEO that was launched on Tue, 11 Nov 2025 UTC via an FALCON 9 launch vehicle from the Air Force Eastern Test Range (AFETR). Payload-class satellites include a variety of spacecraft equipped with specific instruments for various scientific and technological missions. These include communications satellites like Starlink; space stations such as the ISS; scientific satellites like the Hubble; Earth observation satellites from companies like Planet Labs, Umbra, and HawkEye 360; GPS; miniature CubeSats for education and research; and military/defense satellites.

Loading next visibility...
Identifier
66438, 2025-259S
Orbit
LEO
Country
Flag of USUS
Related business
Manufacturer
SpaceX/Seattle
Mission
Operational Commercial Communications
Bus & Motor
STARLINK V2MO, Unknown motor
Mass
575 kg wet, ~530 kg dry
Launch date (UTC)
2025-11-11 (7 months ago)
Launch vehicle
FALCON 9
Launch site
Air Force Eastern Test Range (AFETR)
Object type
Payload
Rocket body
Debris
Shape & HBR
Box + 2 Pan, 17.7 m
Radar Cross Section
36.964 m², Large (>1 m²)

Expand to show TLE details & history
Last TLE update: 14 hours ago

TLE from 14 hours ago
0 STARLINK-34681
1 66438U 25259S   26150.11613656  .00029752  00000-0  10855-2 0  9999
2 66438  42.9971 174.5519 0001457 181.5801 178.5046 15.27606114 31833
Epoch: 2026-05-30T02:47Z
TLE epoch observation values (Epoch: 2026-05-30T02:47:14.198Z)
Latitude
-0.00005°
Longitude
-114.89409°
Altitude
483.745 km
Speed
7.625 km/s
True Right ascension
11h 38m 12s
True Declination
0° 00' 00"
Sunlit
Object was in daylight at epoch
Visualization orbit readout
Latitude
Unknown
Longitude
Unknown
Altitude
Unknown
Speed
Unknown
Apparent Right ascension
Unknown
Apparent Declination
Unknown
Sunlit
N/A
Visualization observer readout
Local Sidereal Time
02:01:17
Azimuth
Unknown
Elevation
Unknown
Doppler factor
Unknown
Orbital elements
Apogee altitude
485.917 km
Perigee altitude
483.917 km
Semi-major axis
6,863.054 km
Eccentricity
0.00015
Inclination
42.9971°
RAAN
174.5519°
Arg. of periapsis
181.5801°
True anomaly
178.50504°
Mean anomaly
178.5046°
Eccentric anomaly
178.50482°
Mean motion
3.81739 °/min
Orbital period
94.31 mins
BSTAR
0.0010855
Loading maneuver chart data...
Computing Atmospheric mass density...
Loading historical data...
Loading historical data...
Loading historical data...
Loading historical data...
Loading historical data...
Loading historical data...
Loading historical data...

Documentation

Showing up to 5 results
|